Wind_Speed
64 63 61 58 57 57 57 57 58 59 59 57 56 54 52 50 48 48 47 43 39 36 35 35 35 34 33 33 34 35 39 38 37 40 41 44 50 55 59 59 59 59 58 58 57 56 54 51 49 49 49 51 53 54 55 56 56 57 57 56 56 56 56 56 57 57 56 56 57 57 57 56 56 56 56 57 57 58 58 58 58 58 58 58 59 59
63 60 58 59 60 60 60 60 61 60 59 57 56 54 53 51 49 47 46 44 41 37 34 34 34 34 33 33 33 34 36 37 38 38 34 38 46 52 57 58 59 60 59 59 60 59 59 58 57 56 56 55 55 55 55 56 56 57 57 57 56 57 57 58 58 57 57 58 57 56 55 55 56 57 58 58 59 60 60 60 59 59 59 59 59 60
58 56 58 60 61 61 61 61 62 60 58 57 56 55 53 52 49 47 46 44 41 38 36 36 35 35 35 35 34 33 35 38 38 33 29 33 42 50 54 54 53 55 57 58 59 60 60 60 60 60 61 60 59 57 56 55 56 56 57 57 57 58 58 58 58 57 57 55 54 54 56 58 59 59 60 60 60 61 61 60 59 59 59 59 60 60
54 53 57 60 60 60 59 60 59 58 56 55 54 53 52 51 49 47 45 42 40 38 38 37 36 36 36 35 35 34 38 41 39 37 35 37 41 46 47 46 45 46 50 53 55 56 57 57 58 58 59 60 60 59 58 57 58 58 59 59 59 59 59 59 59 58 57 56 57 59 61 62 62 62 62 62 62 62 61 61 60 60 60 60 61 62
52 55 58 58 58 58 58 58 57 55 54 52 52 51 51 50 49 46 43 41 41 39 38 37 36 35 35 35 36 36 41 45 46 45 44 44 45 44 38 37 42 42 42 44 45 48 52 54 56 56 56 57 59 60 61 61 61 61 61 61 61 61 61 61 61 61 60 61 63 64 63 63 63 63 64 64 63 63 62 62 61 61 62 62 63 64
52 56 59 58 57 57 57 57 56 54 53 52 52 52 51 51 48 45 43 42 41 39 38 38 35 34 35 36 38 39 43 48 52 52 50 52 52 51 44 39 45 48 45 42 40 40 44 48 51 53 54 55 57 59 61 62 62 63 63 63 63 62 63 63 63 63 63 63 64 64 64 65 65 64 64 64 63 63 63 62 63 63 64 64 64 64
53 57 59 58 58 57 56 56 56 55 54 53 53 53 53 50 48 46 45 44 42 40 40 38 36 35 36 37 39 41 44 49 55 57 58 58 58 57 52 45 48 53 50 47 44 41 43 46 48 51 53 55 57 59 61 62 63 64 65 65 65 65 65 65 65 64 64 65 65 65 66 65 65 65 64 64 64 63 64 64 65 65 65 65 64 63
54 57 58 57 57 56 55 55 55 54 54 54 55 55 53 50 48 47 46 45 44 42 41 38 37 37 37 38 39 41 43 47 53 58 60 59 58 57 55 52 53 55 54 53 52 52 53 54 54 54 54 56 58 60 61 61 62 61 60 61 62 63 63 63 64 64 65 66 66 66 66 66 65 65 65 65 65 65 65 65 66 65 65 65 63 62
56 58 58 57 56 54 53 54 55 55 54 55 57 56 52 51 50 49 48 47 45 43 41 39 38 38 38 39 40 41 43 45 50 55 57 57 58 58 57 58 59 58 58 58 57 58 60 60 60 58 57 59 60 61 62 62 63 62 60 60 61 62 63 64 64 65 65 66 66 66 66 66 66 66 66 66 67 67 66 66 65 64 64 63 62 61
59 60 60 59 56 54 54 55 56 55 56 58 59 56 53 51 50 50 49 47 46 43 40 40 39 39 40 40 40 41 43 46 50 54 56 58 58 55 53 53 55 56 57 58 58 58 58 57 59 59 59 61 62 62 62 63 64 65 65 66 66 66 66 66 66 66 67 67 67 67 67 67 67 67 67 67 67 67 66 65 63 63 62 61 60 58
61 62 62 60 57 57 58 59 58 57 59 61 59 55 53 52 51 50 49 48 45 41 41 42 42 41 41 41 41 42 44 47 50 52 55 57 55 52 47 43 45 49 53 58 60 60 59 59 60 61 61 62 62 62 62 62 63 64 65 67 68 67 67 67 67 67 67 67 67 67 67 67 67 67 67 67 66 66 65 63 62 60 58 58 56 55
61 61 61 59 59 60 61 61 60 60 61 61 58 55 54 53 51 50 48 46 42 39 42 45 44 42 41 42 43 44 45 46 47 49 52 53 52 52 48 44 44 47 49 55 58 60 60 60 61 61 61 61 61 61 61 62 62 63 64 65 65 65 65 66 66 66 66 66 66 66 66 65 65 65 65 65 64 64 63 61 59 57 56 55 55 54
60 59 58 59 60 61 62 61 60 60 60 59 57 56 54 52 50 47 44 42 38 38 42 45 43 41 41 43 45 45 45 46 46 47 50 52 53 54 53 51 50 51 52 55 57 59 60 60 60 60 60 60 60 61 61 61 61 62 62 63 63 63 63 64 64 64 64 64 64 63 63 63 63 62 62 62 61 60 59 58 57 56 56 55 55 54
58 58 56 57 58 60 61 60 59 57 56 56 55 54 53 50 47 44 41 39 37 38 41 43 41 40 40 43 44 44 45 46 48 49 51 53 56 58 59 59 59 58 58 59 60 61 62 62 61 60 60 60 60 60 60 60 60 60 60 61 61 61 62 62 62 62 62 62 61 61 61 60 60 60 59 58 58 57 56 56 56 56 55 55 55 54
56 55 54 54 56 58 58 57 57 57 57 56 55 54 52 48 46 43 41 39 39 39 40 41 38 36 37 39 42 44 45 46 49 52 53 55 58 61 63 66 67 66 65 65 66 66 66 64 63 62 61 59 58 58 58 57 58 58 58 58 59 59 60 60 60 60 60 60 60 59 59 58 58 57 57 56 56 55 55 55 55 54 54 54 54 54
55 54 53 54 56 57 58 57 58 58 58 57 57 55 50 48 48 45 43 42 42 42 40 39 36 34 35 38 41 43 44 46 48 51 54 57 60 63 65 68 71 71 70 71 71 70 68 66 65 63 61 60 59 58 57 56 56 56 57 57 57 57 57 58 58 58 58 58 58 58 57 57 56 56 55 55 55 54 53 54 54 54 54 54 54 55
53 54 55 56 57 58 58 58 58 57 57 57 56 51 48 50 50 47 45 46 45 42 39 37 34 33 35 38 40 41 42 45 47 49 53 56 60 64 67 69 70 71 72 72 71 69 68 66 65 63 62 61 59 57 55 54 54 55 56 55 55 55 55 55 56 56 56 56 56 56 56 55 55 54 54 54 54 53 53 53 53 54 55 55 55 56
51 54 56 57 58 60 60 60 60 59 59 57 53 49 51 54 51 47 47 46 44 40 37 36 35 34 36 37 37 39 41 43 45 48 51 54 57 61 63 65 66 66 67 67 66 66 65 65 64 63 61 59 57 56 55 54 54 55 55 54 54 53 53 54 54 54 55 55 54 54 54 54 54 54 54 54 54 54 53 53 54 55 55 56 57 57
51 54 56 57 60 61 62 62 60 59 58 56 54 55 57 55 50 47 47 46 43 40 37 36 35 35 35 35 36 39 41 43 45 46 48 50 53 55 57 58 58 58 58 59 60 61 62 62 62 61 59 58 56 55 55 55 54 54 54 53 53 53 53 53 53 53 53 53 53 53 53 53 54 54 55 55 55 55 55 55 56 56 57 58 59 59
51 54 56 58 61 63 63 61 58 56 56 56 57 57 56 54 50 48 48 46 44 41 38 37 36 34 35 36 38 41 42 42 42 43 45 47 48 50 51 52 52 52 53 53 55 56 58 59 58 58 57 56 56 55 55 55 55 54 54 53 53 53 53 53 53 53 53 53 53 53 53 54 54 55 55 56 56 56 56 57 57 58 59 60 60 60
52 53 55 58 61 61 58 55 54 55 57 57 57 55 54 52 50 49 48 45 43 40 38 38 36 35 37 39 41 42 42 42 41 41 43 44 45 46 47 48 49 50 50 49 50 51 53 54 54 54 54 55 56 56 56 56 56 56 55 55 54 54 54 53 53 53 53 53 54 54 54 54 55 55 56 56 57 57 58 58 59 60 60 61 61 61
53 53 55 57 58 58 55 55 57 58 59 59 58 57 56 54 53 52 49 45 43 40 39 38 37 37 40 41 42 43 42 41 40 40 40 42 44 45 46 47 48 49 48 47 47 47 48 49 48 49 50 52 54 55 56 57 57 57 57 56 56 55 54 54 54 54 54 54 55 55 55 55 56 57 57 58 58 58 59 60 61 61 62 62 62 61
54 54 54 55 56 56 57 58 60 60 60 61 60 59 59 57 55 53 50 47 47 44 42 41 40 40 41 42 42 42 41 41 40 40 41 42 44 46 47 49 50 50 49 48 47 48 47 46 45 45 47 48 50 52 53 54 55 56 56 57 56 56 56 55 55 55 55 55 55 56 56 57 58 58 59 59 59 59 60 61 62 62 62 62 61 61
54 54 54 54 54 55 57 58 60 61 60 60 59 59 58 56 55 54 52 51 51 48 45 44 43 42 43 44 44 43 42 43 43 43 43 43 44 45 47 49 50 51 51 49 49 49 48 46 45 46 47 48 49 49 50 51 52 54 55 56 56 57 57 56 56 56 56 56 56 57 57 58 58 58 59 59 60 60 61 62 63 63 62 62 61 61
53 53 54 53 53 54 54 56 58 58 57 58 58 57 57 57 57 56 55 54 51 47 46 46 45 44 45 46 45 45 44 44 44 44 44 44 44 44 45 47 48 50 50 50 50 49 48 47 47 48 48 48 49 49 49 50 50 51 52 53 54 55 56 57 56 56 57 57 57 58 58 58 58 59 59 60 61 61 62 63 63 64 63 63 62 62
54 53 53 52 52 52 51 51 52 53 54 55 56 56 57 58 57 57 56 54 51 48 47 47 45 45 47 47 47 46 45 45 45 45 45 45 45 45 45 45 46 48 49 49 50 49 49 48 48 49 49 49 49 49 49 49 49 49 50 51 53 54 55 56 57 57 57 58 58 58 58 59 59 60 60 61 62 62 63 63 63 64 64 64 64 64
55 54 53 52 51 51 51 52 53 53 53 53 53 55 56 57 57 58 56 53 51 50 49 47 46 46 47 48 48 48 47 47 46 46 46 46 46 46 45 45 45 45 47 48 49 50 49 49 49 49 49 49 49 49 49 49 48 49 49 51 52 53 55 57 57 58 58 58 58 59 59 60 60 61 62 62 63 63 63 64 64 65 65 65 66 66
54 54 53 52 51 51 52 52 53 53 52 51 52 53 55 56 57 56 54 52 52 52 50 47 47 48 49 50 50 50 49 49 48 48 47 47 46 46 45 44 44 44 45 46 47 48 48 49 49 49 50 50 50 49 49 49 49 49 50 51 52 53 55 57 58 59 59 60 60 60 61 61 62 62 63 63 64 64 65 65 65 66 66 67 68 68
53 54 54 52 50 50 51 52 52 52 52 51 51 52 53 54 54 54 53 52 53 52 50 49 50 50 51 52 52 52 51 50 49 48 48 47 46 45 45 45 46 45 45 45 46 46 48 49 50 50 50 50 50 50 50 49 49 49 50 51 51 53 54 56 57 59 60 61 61 62 63 63 64 64 65 65 65 66 66 66 66 67 68 68 69 68
51 53 54 53 52 51 51 51 52 52 52 51 51 52 52 52 52 52 52 51 52 52 52 52 52 51 52 53 52 52 51 50 49 49 49 49 48 47 47 47 48 48 48 47 46 46 48 49 50 50 50 51 51 51 51 50 50 50 50 51 51 52 53 55 57 59 60 61 62 63 64 64 65 66 66 67 67 67 67 67 67 68 68 68 67 66
49 52 53 53 53 52 51 51 51 51 51 52 52 52 52 52 51 51 50 50 50 51 53 54 53 53 53 53 53 52 51 50 51 51 51 51 50 49 49 50 50 50 50 49 48 48 49 49 50 50 51 51 52 51 51 51 51 51 51 51 52 52 53 54 56 57 59 61 62 63 64 65 66 67 67 68 68 68 68 68 68 68 68 67 66 65
49 51 52 53 53 52 51 51 51 51 51 52 51 51 51 51 50 49 49 49 50 51 53 53 53 54 54 54 53 52 52 52 52 52 52 51 51 50 50 51 51 52 52 51 51 51 51 52 51 51 51 52 52 52 52 53 53 53 53 53 53 53 54 54 55 56 57 59 61 62 64 65 66 67 67 68 68 68 69 69 69 69 69 68 67 67
50 51 53 53 53 52 51 51 51 51 51 50 49 49 49 49 48 48 48 49 50 51 51 52 53 55 55 54 53 52 52 52 52 52 52 52 51 51 51 51 52 53 53 52 52 53 53 53 53 53 53 53 53 53 54 54 55 55 55 55 55 55 55 55 56 57 57 58 60 61 62 64 65 66 67 68 68 69 69 70 70 70 70 69 68 68
50 52 54 54 54 53 52 52 52 51 49 47 47 48 48 48 48 48 48 48 48 50 51 53 54 55 53 52 52 52 53 53 53 52 52 52 52 52 52 52 53 54 54 54 54 54 54 54 54 55 55 56 56 55 56 56 57 57 57 57 57 57 57 57 57 58 59 59 60 61 62 63 65 66 67 68 68 69 70 71 71 71 70 69 69 70
50 53 54 55 55 55 54 53 52 49 47 47 48 49 48 48 48 48 48 48 48 50 52 53 54 54 53 53 52 53 53 54 53 53 53 52 53 53 53 54 54 55 54 54 54 54 55 55 55 56 56 57 57 57 57 57 58 58 58 58 58 58 58 59 59 60 60 61 61 62 62 63 64 66 67 68 69 70 71 71 71 70 70 71 72 73
52 53 54 55 56 55 54 53 50 48 48 50 50 49 49 49 48 48 48 48 49 50 52 54 54 54 54 53 53 53 54 55 54 53 53 53 54 55 55 56 56 55 55 54 54 55 55 56 55 56 56 57 57 57 58 58 58 59 59 59 59 59 60 60 60 61 61 61 61 62 63 64 66 67 68 68 69 70 70 70 70 71 72 73 73 72
53 54 55 56 56 54 53 52 50 50 51 50 49 49 50 50 50 50 49 49 49 50 52 54 55 54 54 54 54 55 56 56 55 54 54 55 56 57 56 56 56 55 55 55 56 56 56 55 55 56 56 57 57 57 58 58 59 59 59 59 59 60 60 60 60 60 60 60 61 62 63 65 66 66 67 67 68 69 69 70 71 72 73 71 69 68
55 55 56 56 56 54 53 52 52 51 50 50 51 52 53 53 52 51 50 48 48 49 52 54 55 55 55 55 56 57 57 56 55 55 56 58 58 58 57 56 56 56 56 57 57 56 56 56 56 56 57 57 57 57 58 58 59 59 59 59 59 59 59 59 59 59 59 60 61 62 63 64 65 65 66 67 68 69 70 71 72 71 69 67 66 66
55 56 57 57 56 54 53 52 51 50 50 52 55 55 55 54 53 52 50 48 47 50 53 55 56 57 57 57 58 58 57 56 56 58 58 58 58 58 57 56 57 57 58 58 58 57 57 57 57 57 57 57 57 57 58 58 58 58 58 58 59 59 59 59 59 60 60 60 61 62 63 63 64 65 66 68 69 70 71 70 68 66 65 65 65 66
56 56 56 56 54 53 53 52 51 50 51 54 55 56 55 55 55 54 50 48 50 54 55 57 58 59 59 60 60 59 58 58 59 60 59 58 58 58 58 58 59 59 60 60 59 58 58 57 56 56 57 56 56 56 56 57 57 57 58 59 59 60 60 60 60 60 60 61 61 62 63 64 65 66 68 69 69 68 67 65 64 64 65 66 66 67
56 56 56 55 54 54 53 53 52 51 52 53 54 55 55 56 56 54 51 52 55 58 58 58 59 60 61 62 61 61 60 60 60 60 60 59 59 60 60 61 61 61 61 61 61 59 58 57 55 55 55 54 54 55 55 56 57 57 58 59 60 60 60 60 60 60 60 61 62 63 64 65 66 67 67 66 65 64 63 63 64 65 66 67 68 69
55 55 55 54 54 54 54 53 52 52 52 54 56 56 58 59 59 58 57 58 59 59 59 58 59 60 62 62 62 62 62 62 62 62 61 61 61 61 61 62 63 63 62 62 61 59 58 55 53 52 53 53 53 54 55 56 57 58 58 59 59 59 59 59 59 60 60 61 62 63 64 64 65 65 64 63 62 62 62 64 65 66 67 68 69 70
55 55 54 54 55 55 54 54 54 55 57 58 60 61 62 63 62 61 61 60 59 59 60 59 59 60 61 61 61 62 62 63 63 62 61 62 62 62 62 63 63 62 62 61 60 57 54 52 51 51 51 52 53 54 55 56 57 57 58 57 57 58 58 59 59 60 60 61 61 62 62 62 62 61 61 61 62 62 64 65 66 67 68 69 69 70
55 55 55 56 57 57 57 58 59 60 61 62 62 63 63 62 61 61 61 60 59 59 59 60 60 60 60 60 61 62 63 63 62 61 61 62 62 62 62 62 62 62 60 58 55 52 50 49 50 50 51 52 53 54 55 56 57 57 57 57 57 58 59 59 59 59 59 60 60 60 60 59 59 59 60 61 63 64 65 66 67 68 68 68 69 69
54 54 54 55 56 57 58 59 59 60 61 61 61 62 62 61 61 61 60 59 58 57 58 59 60 59 59 60 61 62 63 63 62 61 61 61 61 61 61 61 61 60 57 54 52 51 50 49 49 50 51 52 54 55 56 56 57 57 57 57 57 58 58 58 58 58 59 59 59 59 58 58 58 59 61 62 64 65 65 66 66 67 67 68 68 68
48 49 49 50 51 51 53 54 56 57 58 58 59 60 59 59 59 59 58 57 56 56 56 58 59 59 59 60 61 62 63 62 61 60 60 59 59 60 60 59 58 56 53 52 51 51 49 48 49 50 51 53 55 55 55 56 55 55 55 55 56 56 57 58 59 59 59 58 57 57 57 58 59 60 62 63 64 65 65 65 65 66 67 67 68 69
42 42 42 42 44 45 47 49 50 51 52 52 52 52 53 54 55 55 55 54 53 53 54 56 57 57 58 59 60 61 61 60 59 59 59 58 58 57 56 55 54 52 51 51 52 51 49 49 50 51 52 53 54 54 54 54 53 53 54 55 56 57 59 60 59 59 57 56 57 57 58 59 60 61 62 63 64 64 64 64 64 65 67 68 69 69
37 36 36 38 39 40 42 44 45 45 45 45 45 46 47 48 48 49 49 48 48 49 51 52 54 54 55 56 57 58 58 58 58 58 57 56 55 54 53 52 51 50 50 51 53 52 50 50 51 51 51 52 52 52 52 52 53 54 55 56 57 58 58 58 58 57 57 57 57 58 59 60 61 61 62 62 63 63 63 64 64 65 67 68 68 67
33 34 35 36 37 38 40 40 39 38 38 38 39 40 40 41 42 43 43 44 45 46 48 50 51 52 54 55 56 56 56 56 55 54 53 51 50 50 50 50 49 49 50 52 52 51 51 51 50 50 50 51 51 51 52 53 55 56 56 57 57 56 56 57 57 57 57 58 58 59 60 61 61 61 61 61 62 63 64 64 65 66 66 66 65 64
31 32 32 33 34 34 34 33 32 32 34 35 36 38 39 40 41 42 43 44 46 47 48 49 50 51 52 53 53 53 52 50 49 48 48 48 47 47 48 48 48 48 50 51 51 49 49 49 50 50 51 51 52 53 54 56 56 56 56 55 55 55 55 56 57 58 58 59 59 60 60 60 60 61 61 61 62 64 64 65 65 65 64 63 61 60
29 30 30 30 31 31 31 31 33 35 37 38 39 40 41 42 43 44 45 46 46 46 47 47 48 48 48 48 48 47 46 45 45 45 45 46 46 46 46 46 46 47 50 51 49 47 47 49 51 52 52 53 54 55 55 56 55 55 54 54 54 54 55 57 58 59 59 60 60 60 60 60 60 61 62 62 63 64 65 65 64 62 60 59 56 54
Wind_Direction
234 235 235 235 234 233 234 234 234 235 237 239 240 240 241 240 241 244 245 244 242 241 240 238 236 234 232 232 231 229 231 232 235 241 250 257 260 262 263 264 264 263 262 260 258 257 257 257 259 260 260 260 260 261 262 263 264 265 266 267 268 269 270 271 273 274 275 277 278 279 279 279 279 280 281 282 283 284 285 287 288 288 288 289 289 290
233 234 234 233 232 231 231 232 234 236 237 238 239 240 240 240 240 242 244 244 241 238 235 234 232 230 228 227 225 222 221 222 224 228 241 258 265 267 267 267 267 267 265 264 262 259 258 258 259 261 262 263 263 263 263 263 264 265 266 267 268 269 270 271 273 274 276 278 277 277 278 279 280 281 281 282 283 284 286 287 288 289 289 289 290 290
232 233 232 232 231 232 232 232 234 235 236 237 238 239 239 239 239 239 241 242 240 236 232 230 228 226 224 222 221 217 212 215 217 215 225 247 260 266 267 266 265 265 264 263 263 262 261 261 261 262 263 263 263 263 263 264 265 267 268 269 270 270 271 272 273 275 277 276 275 276 278 281 281 282 282 283 284 285 286 287 288 289 289 289 290 290
229 229 231 231 231 231 231 231 233 234 235 236 237 237 238 237 237 237 238 239 239 236 233 231 228 225 224 220 218 214 209 210 207 205 217 233 244 250 256 264 265 262 261 260 261 261 261 261 261 262 262 262 263 262 262 264 266 267 269 269 270 271 272 272 273 274 274 273 275 278 280 282 282 282 283 284 284 285 286 287 288 288 289 289 290 290
224 224 226 227 228 228 228 229 230 231 232 233 234 235 235 235 235 234 234 235 235 235 232 230 227 225 224 221 217 212 209 210 207 206 215 225 233 238 246 265 269 265 264 263 263 263 261 260 261 261 262 262 262 261 261 263 265 267 268 268 269 270 271 272 273 273 273 273 276 279 281 281 282 283 284 285 285 286 287 288 288 288 289 289 290 290
221 223 224 224 224 225 226 228 228 227 228 229 231 232 233 233 233 232 231 231 232 232 231 229 226 224 224 221 218 213 209 210 210 210 216 223 231 238 240 253 264 265 267 268 269 268 264 261 260 259 260 260 260 261 262 263 265 266 267 267 268 269 270 271 272 273 274 275 276 278 279 280 281 283 284 285 286 287 287 288 288 289 289 290 290 291
219 222 224 224 223 222 223 225 227 227 227 228 230 231 232 232 231 230 228 228 228 228 229 229 226 223 223 221 219 217 213 212 212 214 220 226 234 239 237 240 254 261 262 262 264 266 266 265 263 261 260 260 261 261 263 264 265 266 267 268 269 269 270 271 272 273 273 274 276 277 279 280 281 283 284 285 286 286 287 287 288 289 289 290 290 291
218 221 222 222 223 222 222 224 225 226 227 228 229 230 230 230 228 227 227 227 226 227 228 228 226 223 222 222 220 219 218 216 216 220 224 228 233 238 236 235 245 253 255 256 260 263 265 266 266 265 264 265 266 266 266 266 267 267 268 269 269 269 269 270 272 273 274 275 276 277 279 280 281 282 283 284 285 285 286 286 287 288 289 289 290 291
218 220 221 220 221 221 222 224 224 224 224 226 228 228 228 228 227 226 226 226 226 226 227 226 225 223 223 222 221 220 220 219 221 224 226 228 231 237 239 239 244 250 254 257 261 263 265 265 266 266 266 268 269 269 268 268 267 268 268 268 269 269 270 272 273 274 275 276 277 278 279 280 281 281 282 283 284 284 285 286 287 288 288 289 289 290
217 218 218 218 217 217 219 222 223 223 224 226 227 227 227 227 227 227 227 227 227 226 225 225 225 224 223 223 222 221 221 220 221 222 224 228 232 236 240 244 248 253 257 260 262 262 263 264 265 267 268 269 268 268 268 267 267 268 268 268 269 270 272 273 274 274 275 276 277 278 279 280 281 281 282 283 284 284 285 286 287 288 288 289 289 290
217 218 218 217 215 215 218 220 220 221 223 225 226 227 227 228 228 228 228 228 227 225 225 226 226 224 224 224 224 223 223 222 222 222 223 226 231 234 234 237 245 251 256 257 258 259 260 262 265 268 269 269 268 267 267 266 266 267 268 268 269 270 271 272 273 274 275 276 277 277 278 279 280 281 282 283 285 285 286 287 287 288 288 289 290 291
219 220 220 219 217 217 219 221 221 221 223 225 226 227 228 229 229 230 231 231 229 228 228 229 227 225 225 225 224 224 226 226 225 225 225 225 228 231 229 228 233 241 248 252 255 257 259 262 266 267 267 266 266 266 265 265 266 266 267 268 269 270 271 271 272 273 274 274 275 276 277 278 280 281 282 284 285 286 287 288 288 288 288 289 290 290
220 221 223 222 221 221 222 223 224 225 227 228 228 228 229 230 231 233 234 234 231 230 231 231 228 225 225 227 227 227 228 228 228 228 227 227 227 229 229 228 231 238 245 250 254 258 262 265 266 266 265 264 264 264 264 265 265 266 266 267 269 270 271 271 272 273 273 274 275 275 276 278 279 280 281 283 284 285 287 288 288 288 289 289 289 289
222 223 224 225 225 226 227 227 228 229 230 231 232 232 232 232 233 234 234 234 232 232 234 234 229 226 227 230 231 230 230 230 229 229 228 228 228 229 231 231 234 240 244 248 254 260 264 265 265 264 264 264 264 264 264 264 265 265 266 267 268 269 270 270 271 272 273 274 274 275 276 277 278 279 280 281 282 283 285 286 287 288 288 289 289 289
222 224 225 227 229 230 231 230 230 229 229 229 230 231 231 232 232 232 232 232 232 233 236 236 231 228 230 233 234 233 232 232 231 230 230 230 230 231 233 234 236 240 244 248 254 259 261 262 262 262 262 263 263 263 264 264 265 265 266 266 267 267 269 270 270 271 272 273 274 275 275 276 277 277 278 279 280 281 283 284 285 286 286 287 288 289
219 220 222 224 226 228 229 229 230 230 231 231 231 232 233 232 231 230 229 230 232 233 235 237 234 231 232 234 235 235 235 235 235 233 232 232 232 232 234 235 238 241 245 249 253 256 258 259 260 260 261 261 262 263 264 265 265 266 266 266 266 267 268 269 270 271 272 273 274 274 275 276 276 277 278 279 280 281 281 282 283 284 285 286 287 289
220 219 220 222 223 224 225 227 228 230 231 232 234 235 236 234 231 229 229 231 233 234 237 239 237 234 234 236 238 238 237 238 238 238 236 235 235 235 236 237 240 242 246 249 252 254 256 257 258 259 259 260 261 263 264 264 265 265 265 265 266 267 268 269 270 271 272 273 273 274 275 276 276 277 278 278 279 280 281 282 284 285 286 287 287 288
220 219 221 222 223 224 224 225 226 227 229 231 232 232 232 232 231 230 232 234 237 238 239 241 239 236 236 238 241 241 240 239 239 240 240 239 239 239 239 240 242 245 247 250 252 253 255 256 257 257 259 260 261 262 263 263 264 264 265 266 267 268 268 269 270 271 272 273 273 274 275 276 277 277 278 278 279 280 281 282 284 285 286 287 288 288
218 219 220 221 223 224 224 225 226 227 230 232 231 230 231 232 231 231 233 236 238 239 238 239 239 238 238 240 241 242 241 240 240 241 243 244 244 244 244 244 246 247 249 250 252 253 254 255 255 257 258 259 260 261 262 263 263 264 265 266 267 268 268 269 270 271 272 273 274 275 276 276 277 277 278 279 280 281 282 283 284 285 286 287 288 289
218 219 220 222 224 225 226 227 228 230 232 233 234 234 236 237 235 234 235 236 236 236 235 234 235 236 238 239 240 241 242 242 242 243 245 246 248 249 249 249 248 249 250 251 252 253 254 255 256 257 258 259 260 261 261 262 263 264 265 266 266 267 268 269 270 271 273 274 274 275 276 277 278 278 279 280 281 282 283 284 285 286 287 288 288 289
219 220 221 222 225 227 229 230 231 231 232 233 235 236 238 240 240 239 239 239 239 238 237 236 234 233 235 237 239 242 244 245 246 246 247 248 250 251 252 253 252 251 251 252 253 255 257 257 258 259 259 260 260 260 261 261 262 263 264 265 266 267 268 269 270 272 273 274 275 276 277 278 279 280 281 281 282 283 284 285 286 286 287 287 288 289
220 221 222 223 225 227 228 229 230 230 230 232 233 234 235 236 237 238 238 239 240 238 237 237 235 233 235 237 240 243 245 248 250 251 251 251 251 252 254 256 257 256 254 254 255 256 258 259 260 261 261 261 261 261 262 262 262 263 264 265 266 267 268 269 271 272 273 274 276 277 278 279 280 280 281 282 283 284 285 285 286 287 287 288 288 288
220 222 223 225 226 227 226 227 229 230 230 232 233 234 235 236 237 239 238 237 237 235 233 233 232 232 236 239 241 245 247 249 251 252 252 251 251 252 253 255 257 258 258 257 257 258 258 260 262 262 263 263 263 263 263 263 264 264 265 266 266 267 268 269 270 272 274 275 277 278 279 279 280 281 282 283 283 284 285 285 286 287 288 288 289 288
222 223 224 225 227 228 228 228 230 230 231 233 235 237 239 240 241 242 241 239 238 236 234 233 233 233 236 239 241 243 245 247 249 251 252 252 252 253 253 254 256 258 260 260 260 260 261 262 263 264 264 265 265 266 266 267 267 267 267 267 267 268 269 270 271 273 275 276 277 278 278 279 280 281 282 282 283 284 285 285 286 287 288 288 288 288
223 224 226 226 227 229 231 231 233 234 235 236 237 239 241 242 242 243 243 243 242 241 240 240 240 240 240 242 243 244 245 247 249 252 254 255 255 256 256 257 257 259 260 262 262 263 263 263 264 264 265 266 267 269 269 270 271 271 271 271 270 270 270 270 271 273 274 275 276 277 278 279 279 280 281 282 283 284 285 286 287 287 288 288 288 288
223 224 226 227 228 231 233 235 237 238 239 239 239 240 241 243 244 244 245 245 245 244 243 242 243 243 245 245 246 246 247 247 248 251 254 255 256 256 257 257 258 259 260 262 263 263 263 263 264 265 266 267 269 270 271 273 274 275 275 275 275 274 273 272 272 272 274 274 275 277 277 278 279 280 281 282 283 284 285 286 286 287 288 288 288 288
223 225 226 227 228 230 232 233 235 236 237 238 239 241 242 243 244 245 245 246 246 245 243 243 242 243 244 246 246 247 247 247 247 248 251 254 256 257 257 259 261 262 262 262 262 263 264 265 265 266 267 268 270 272 273 275 276 277 278 278 278 277 276 274 273 272 273 274 275 276 276 277 279 280 281 282 284 285 285 286 287 288 288 289 289 289
225 226 228 228 228 230 232 233 234 236 237 237 238 239 240 242 243 245 246 246 245 245 244 243 241 241 242 243 244 245 245 245 246 248 250 254 257 259 260 261 262 263 263 263 263 264 265 266 267 268 268 270 271 272 274 275 277 278 279 280 280 279 278 276 275 273 273 273 274 275 276 277 278 279 281 282 284 285 286 286 287 288 289 290 290 290
226 227 228 229 230 231 233 234 236 237 238 238 239 240 241 242 243 244 244 244 244 244 243 241 240 240 240 242 243 245 245 246 247 249 251 253 256 258 259 260 261 262 262 262 263 264 265 266 267 268 269 270 271 272 274 275 276 278 279 280 280 280 279 278 277 275 274 274 274 275 276 277 278 279 281 283 284 285 286 287 288 289 290 291 291 291
228 228 229 229 230 231 233 235 237 238 239 239 240 240 242 243 244 245 244 244 243 243 242 241 240 239 241 242 244 245 247 248 249 249 250 251 253 254 256 257 259 260 261 262 263 265 266 266 267 268 268 269 270 272 273 275 276 278 279 279 279 279 279 278 277 276 276 276 276 276 277 278 279 280 282 283 284 285 286 288 289 290 291 291 291 291
229 230 230 230 231 231 233 235 237 238 240 241 241 242 243 244 245 246 246 246 245 244 243 242 241 241 242 243 244 245 247 248 248 249 249 250 252 253 255 256 258 260 261 263 264 265 266 267 268 269 269 270 271 271 273 274 276 277 278 279 279 278 278 278 277 277 277 277 277 277 278 279 280 282 283 284 285 286 287 289 289 290 291 291 291 290
229 229 230 231 232 232 233 235 237 239 240 241 243 244 245 246 247 248 248 248 247 245 244 244 244 244 244 244 245 246 247 247 248 249 249 250 252 254 255 257 258 260 262 264 265 266 266 268 269 270 270 271 271 272 272 273 275 276 277 278 279 279 279 279 279 279 279 279 279 279 280 280 281 282 283 284 285 286 288 288 289 291 292 291 291 290
229 229 229 229 230 232 233 235 237 239 240 243 245 247 248 249 249 249 250 249 248 247 246 245 245 245 245 246 247 248 248 248 249 250 250 252 253 255 256 257 259 261 262 264 265 265 267 268 270 271 272 272 273 273 272 273 274 275 276 278 279 280 280 281 281 281 281 281 281 281 281 282 282 283 284 284 285 286 287 288 290 291 292 291 290 291
232 230 229 229 229 230 231 234 236 238 240 243 245 247 248 249 249 250 250 250 250 248 246 245 245 246 247 247 248 248 249 249 250 251 252 253 255 256 258 259 260 262 263 264 266 267 269 271 272 273 274 274 273 273 273 273 273 274 276 277 279 280 281 281 282 282 282 282 282 283 283 283 283 284 284 284 285 286 288 289 290 291 291 290 291 292
234 233 232 231 230 230 230 232 234 237 240 241 242 243 245 246 248 249 249 249 249 247 246 245 245 246 247 247 247 248 249 250 250 252 253 254 256 257 259 260 262 263 265 267 269 271 273 274 275 275 275 274 273 273 272 272 273 274 275 276 278 279 281 281 282 282 283 283 283 284 284 284 284 284 284 285 286 287 288 289 290 290 290 291 292 292
235 233 233 233 233 233 233 233 234 235 237 239 240 241 243 245 246 247 248 248 247 246 245 245 245 246 247 248 248 249 250 250 250 252 253 255 256 258 259 261 263 265 267 269 272 274 275 276 276 276 275 274 273 273 272 272 273 274 275 276 278 279 281 282 282 283 283 284 284 284 283 283 284 284 285 286 287 287 288 289 289 290 291 292 292 292
235 233 233 233 234 235 235 236 235 234 234 237 239 240 242 243 244 245 246 246 246 246 245 245 246 246 247 248 249 250 250 251 252 253 254 256 256 258 260 262 265 267 269 271 273 275 276 277 278 277 276 275 274 273 273 273 273 274 275 277 278 280 281 282 283 283 283 283 283 282 282 283 283 284 285 286 287 288 288 289 290 291 291 291 291 291
233 233 233 234 235 235 236 236 237 236 235 235 236 237 239 240 242 243 245 246 247 247 246 246 246 246 247 248 249 250 251 252 254 254 255 256 258 260 262 264 266 269 271 273 274 276 277 278 278 277 276 275 274 273 273 273 274 275 276 278 279 280 281 282 282 282 282 282 282 282 282 283 284 285 286 287 287 288 289 289 290 290 290 290 291 291
233 233 233 234 235 236 237 237 238 238 237 235 235 236 238 240 242 243 244 245 247 247 247 246 245 245 246 247 249 250 252 254 255 255 256 258 260 262 264 265 267 269 272 274 276 277 278 278 278 277 276 274 273 272 273 274 275 276 277 278 279 280 280 281 281 281 281 281 282 282 282 283 284 285 286 287 287 288 288 289 289 290 290 291 291 292
234 234 235 236 237 238 239 239 238 237 237 237 237 237 238 239 241 243 244 244 245 245 244 244 244 244 245 247 249 251 252 254 255 257 259 261 263 264 265 267 269 271 274 275 276 277 278 277 277 277 275 274 273 273 273 274 275 276 277 278 279 279 280 280 280 281 281 282 282 282 283 283 284 285 285 286 287 288 288 289 290 291 292 292 293 294
234 235 236 237 238 238 238 238 238 237 236 238 239 240 240 241 242 243 243 242 242 243 243 243 243 244 245 246 248 250 252 254 256 258 260 262 263 265 267 269 272 274 275 276 277 277 277 277 276 275 274 273 272 272 273 273 274 276 277 278 279 279 280 280 280 280 281 281 282 282 283 283 284 285 286 287 288 289 289 290 291 292 293 294 295 295
237 237 238 238 238 239 239 238 238 238 237 237 238 239 240 240 240 240 239 239 240 243 244 244 244 245 246 247 249 250 252 254 256 258 260 262 263 266 269 272 274 275 276 277 277 277 277 276 274 273 272 271 271 271 272 273 275 276 278 278 278 279 279 279 279 280 280 281 281 282 283 284 286 287 288 289 289 290 291 292 293 294 295 296 296 297
238 238 239 239 239 239 239 239 238 238 237 237 237 238 239 240 240 241 241 241 242 243 245 245 245 246 247 249 250 251 253 254 256 258 260 263 265 268 271 273 274 275 276 277 277 277 275 273 271 270 269 269 270 271 272 274 275 276 276 276 276 277 277 277 278 278 279 280 282 284 286 288 289 290 290 290 291 292 293 294 295 295 296 297 297 298
239 239 239 240 240 240 240 240 239 239 239 239 239 240 241 243 244 244 245 244 244 243 244 246 246 247 248 249 251 252 254 255 257 259 261 264 267 270 271 272 274 275 276 275 274 272 270 268 267 267 267 268 270 271 273 274 274 274 274 274 274 275 275 276 278 279 281 284 286 288 289 290 290 290 291 291 292 293 294 295 296 297 297 298 298 299
240 239 239 239 240 240 241 241 241 242 242 242 241 242 242 243 243 244 243 243 242 242 243 244 246 247 248 249 251 252 254 256 258 260 263 265 268 270 271 272 273 274 273 271 268 266 266 266 266 267 268 268 269 271 272 272 272 272 272 273 273 275 277 280 282 285 287 288 289 289 290 290 290 291 291 292 293 294 295 296 297 297 298 299 300 301
237 236 236 236 238 239 239 240 241 242 242 242 241 241 241 241 241 241 241 240 240 239 240 242 244 246 247 248 250 253 255 257 260 262 264 266 267 269 270 271 271 270 268 266 265 265 265 266 266 266 267 268 269 270 270 270 271 272 273 275 277 280 283 286 287 288 289 289 289 289 289 289 290 291 292 293 294 295 296 297 298 299 300 301 302 303
233 233 233 234 235 236 237 237 238 238 239 239 240 241 241 240 239 239 239 239 239 239 240 242 244 246 247 249 252 254 257 259 261 263 264 265 266 267 267 267 266 265 265 264 264 264 264 265 265 266 267 268 269 270 271 272 274 277 279 282 284 286 287 287 288 288 288 288 288 288 289 290 291 292 293 294 295 295 296 297 299 300 301 303 304 304
229 230 230 231 232 233 234 235 235 235 235 236 237 238 237 237 237 237 238 239 240 240 241 243 245 247 250 252 254 256 259 260 262 263 264 264 265 264 264 263 262 262 262 262 263 265 265 265 265 266 267 268 269 272 274 277 280 282 284 285 286 286 286 286 286 286 287 287 287 288 289 291 292 293 293 294 295 296 297 299 300 301 303 304 304 305
226 227 227 227 228 229 231 231 232 232 234 235 236 236 236 236 237 239 241 242 243 244 245 247 248 250 252 254 256 257 258 259 260 261 261 262 262 262 262 261 260 260 261 262 264 266 267 267 268 268 269 270 273 276 279 282 283 284 284 285 285 285 285 285 285 285 286 287 288 289 291 292 292 293 294 295 296 297 299 300 302 303 304 304 305 305
226 227 228 229 229 230 232 233 234 235 236 237 238 240 241 241 242 244 245 246 247 248 248 249 250 251 252 253 254 254 255 255 256 257 259 259 259 259 259 260 260 261 261 262 262 264 266 269 270 271 273 275 277 280 282 282 283 283 283 283 283 283 284 284 285 286 287 288 289 290 291 292 292 293 295 296 297 299 300 302 303 304 304 304 304 304
223 225 227 229 231 232 234 234 233 234 234 235 237 239 241 242 243 244 244 245 245 245 246 247 247 247 248 248 249 250 251 252 254 255 256 256 256 256 257 259 259 260 261 262 264 266 268 270 271 273 276 278 279 280 281 281 281 282 282 282 282 283 284 285 286 288 289 289 290 291 291 292 293 294 296 297 299 300 302 303 303 304 304 304 303 303
Height
10617 10622 10629 10633 10634 10635 10635 10636 10635 10637 10643 10648 10651 10657 10662 10667 10671 10672 10675 10683 10691 10696 10699 10701 10703 10707 10710 10713 10716 10718 10720 10725 10730 10731 10733 10734 10731 10727 10725 10726 10728 10730 10732 10734 10736 10737 10738 10740 10741 10742 10742 10742 10742 10742 10743 10743 10743 10743 10743 10744 10745 10745 10744 10743 10743 10743 10743 10743 10742 10742 10741 10741 10740 10740 10739 10738 10736 10735 10735 10734 10734 10733 10732 10731 10729 10728
10613 10620 10624 10624 10623 10625 10627 10628 10628 10634 10640 10643 10647 10652 10657 10663 10668 10670 10671 10677 10685 10691 10694 10697 10699 10703 10706 10708 10711 10713 10716 10720 10724 10727 10732 10733 10729 10723 10721 10722 10723 10723 10725 10726 10728 10731 10732 10735 10737 10738 10738 10738 10738 10738 10738 10738 10738 10738 10737 10738 10740 10740 10740 10739 10739 10739 10738 10738 10737 10737 10736 10735 10735 10734 10734 10733 10732 10731 10730 10730 10729 10728 10727 10725 10724 10723
10611 10617 10616 10614 10616 10619 10622 10623 10625 10631 10636 10639 10643 10647 10652 10658 10664 10667 10668 10672 10679 10685 10689 10692 10695 10699 10701 10703 10706 10710 10713 10715 10718 10723 10729 10731 10726 10720 10715 10716 10716 10716 10717 10718 10720 10723 10726 10729 10732 10733 10733 10733 10733 10733 10733 10733 10733 10733 10732 10733 10734 10735 10735 10734 10734 10734 10733 10733 10732 10731 10731 10730 10730 10729 10728 10728 10727 10726 10725 10725 10724 10723 10721 10720 10718 10717
10607 10610 10606 10607 10611 10615 10618 10618 10622 10628 10632 10636 10639 10642 10647 10653 10659 10663 10666 10669 10673 10678 10683 10688 10692 10694 10697 10700 10703 10706 10709 10710 10714 10719 10723 10722 10716 10712 10710 10710 10710 10710 10710 10711 10714 10717 10720 10723 10725 10726 10727 10728 10728 10728 10729 10728 10728 10728 10728 10728 10729 10729 10729 10729 10729 10729 10728 10727 10727 10726 10725 10725 10724 10723 10722 10722 10721 10721 10720 10720 10719 10718 10716 10715 10713 10711
10600 10599 10596 10600 10605 10610 10612 10613 10618 10624 10628 10631 10633 10636 10641 10647 10655 10659 10663 10665 10667 10673 10678 10682 10688 10692 10694 10697 10699 10702 10704 10705 10709 10712 10714 10711 10706 10706 10710 10707 10703 10703 10705 10707 10710 10713 10715 10717 10719 10721 10721 10722 10723 10723 10723 10723 10723 10723 10723 10723 10723 10724 10724 10724 10724 10724 10723 10722 10721 10721 10720 10719 10718 10717 10716 10715 10715 10715 10715 10714 10713 10712 10711 10709 10707 10706
10592 10590 10590 10595 10600 10604 10608 10610 10614 10619 10622 10625 10628 10631 10635 10642 10650 10655 10659 10661 10664 10668 10672 10677 10684 10688 10690 10692 10694 10697 10698 10700 10702 10705 10704 10702 10700 10702 10707 10704 10696 10696 10701 10704 10707 10709 10710 10712 10714 10716 10716 10717 10717 10717 10718 10718 10719 10719 10718 10718 10718 10718 10718 10718 10719 10719 10718 10717 10716 10716 10715 10714 10713 10712 10711 10710 10709 10709 10708 10708 10707 10706 10704 10703 10701 10700
10585 10584 10585 10590 10594 10599 10603 10605 10610 10614 10618 10621 10623 10624 10629 10638 10645 10650 10654 10657 10661 10664 10667 10674 10680 10683 10685 10687 10689 10692 10694 10695 10697 10698 10696 10696 10696 10696 10701 10701 10692 10692 10699 10702 10703 10705 10706 10707 10709 10710 10711 10711 10712 10713 10714 10714 10713 10713 10712 10713 10713 10712 10713 10713 10714 10714 10713 10713 10712 10711 10709 10709 10708 10707 10706 10704 10704 10703 10702 10701 10700 10699 10698 10696 10695 10694
10579 10578 10581 10587 10591 10595 10599 10602 10606 10610 10614 10615 10615 10617 10624 10632 10638 10643 10648 10653 10657 10660 10665 10671 10675 10678 10680 10683 10685 10687 10690 10692 10693 10692 10691 10691 10693 10692 10695 10697 10691 10689 10695 10699 10700 10702 10702 10702 10703 10704 10705 10705 10706 10707 10709 10709 10708 10708 10707 10707 10707 10707 10707 10707 10708 10707 10707 10706 10706 10705 10705 10704 10703 10702 10700 10699 10698 10697 10696 10696 10695 10693 10691 10690 10688 10687
10573 10573 10578 10582 10587 10593 10597 10598 10600 10604 10607 10607 10606 10612 10619 10626 10631 10637 10643 10648 10653 10658 10663 10667 10670 10673 10676 10678 10681 10683 10685 10687 10687 10687 10687 10688 10688 10687 10689 10691 10689 10687 10691 10695 10697 10698 10697 10696 10697 10698 10699 10699 10700 10701 10702 10703 10703 10702 10702 10702 10701 10701 10701 10702 10702 10701 10700 10699 10699 10699 10699 10698 10697 10696 10695 10693 10692 10691 10690 10690 10689 10688 10686 10684 10682 10681
10565 10567 10570 10575 10582 10588 10590 10590 10593 10598 10600 10598 10600 10608 10614 10620 10626 10633 10639 10645 10650 10656 10661 10662 10666 10669 10671 10674 10676 10678 10678 10678 10678 10680 10682 10682 10683 10684 10685 10687 10686 10685 10687 10689 10691 10693 10693 10691 10690 10692 10693 10693 10694 10695 10696 10697 10697 10697 10697 10696 10695 10695 10696 10696 10696 10695 10694 10693 10693 10693 10692 10691 10690 10689 10688 10686 10685 10684 10683 10683 10682 10681 10679 10678 10677 10676
10559 10561 10565 10571 10578 10580 10580 10580 10585 10590 10590 10590 10597 10605 10610 10616 10622 10628 10635 10641 10647 10654 10656 10657 10661 10663 10666 10670 10672 10672 10671 10671 10674 10676 10677 10678 10679 10680 10682 10683 10682 10681 10680 10681 10683 10685 10686 10686 10685 10686 10687 10688 10688 10689 10690 10690 10691 10691 10691 10690 10689 10690 10691 10690 10690 10689 10689 10688 10688 10687 10686 10684 10683 10682 10680 10679 10678 10677 10676 10675 10675 10675 10673 10672 10670 10670
10555 10559 10564 10570 10573 10573 10573 10576 10580 10583 10584 10588 10595 10602 10607 10612 10618 10625 10632 10638 10645 10650 10650 10652 10656 10660 10664 10665 10665 10666 10666 10669 10673 10674 10675 10677 10677 10676 10676 10678 10678 10676 10674 10674 10675 10677 10679 10680 10680 10681 10682 10682 10683 10683 10683 10684 10684 10685 10684 10683 10684 10684 10684 10684 10684 10684 10684 10683 10682 10682 10681 10680 10678 10677 10675 10673 10671 10670 10668 10668 10667 10667 10667 10666 10664 10664
10553 10558 10562 10566 10568 10569 10571 10574 10578 10581 10584 10589 10594 10600 10605 10610 10616 10623 10630 10636 10642 10644 10643 10647 10652 10657 10660 10659 10660 10662 10664 10667 10670 10671 10672 10673 10672 10672 10672 10673 10673 10672 10670 10668 10670 10672 10673 10675 10676 10676 10676 10676 10676 10677 10677 10678 10678 10679 10678 10678 10678 10678 10678 10678 10678 10678 10677 10677 10676 10676 10676 10675 10674 10672 10671 10669 10667 10665 10663 10661 10660 10659 10659 10659 10658 10657
10552 10556 10561 10564 10566 10567 10570 10574 10578 10581 10585 10589 10593 10598 10603 10609 10615 10622 10627 10632 10636 10637 10638 10641 10647 10653 10655 10654 10656 10659 10660 10663 10665 10665 10666 10667 10667 10666 10667 10668 10667 10665 10664 10664 10666 10668 10669 10669 10670 10670 10670 10671 10671 10671 10672 10673 10673 10673 10673 10673 10673 10672 10672 10672 10672 10671 10670 10670 10670 10669 10670 10669 10669 10667 10666 10665 10663 10661 10659 10657 10655 10653 10652 10651 10651 10650
10549 10555 10560 10563 10565 10566 10569 10573 10576 10577 10579 10583 10587 10592 10599 10606 10612 10617 10621 10625 10629 10631 10632 10635 10643 10649 10651 10650 10651 10652 10654 10656 10657 10658 10660 10660 10660 10660 10660 10660 10659 10659 10660 10662 10663 10663 10663 10663 10664 10665 10665 10666 10666 10666 10666 10667 10667 10667 10667 10667 10667 10666 10666 10666 10665 10665 10664 10663 10663 10663 10663 10663 10662 10661 10661 10659 10658 10656 10655 10653 10651 10649 10647 10646 10644 10644
10545 10551 10555 10557 10559 10561 10565 10568 10570 10571 10574 10578 10580 10587 10597 10603 10606 10610 10615 10618 10621 10624 10627 10632 10639 10645 10645 10644 10644 10646 10648 10649 10649 10651 10652 10652 10652 10652 10652 10653 10654 10656 10657 10658 10658 10658 10658 10658 10659 10660 10660 10660 10660 10660 10661 10662 10661 10660 10660 10660 10660 10660 10660 10659 10659 10658 10658 10657 10657 10657 10657 10656 10656 10655 10655 10654 10652 10651 10650 10648 10647 10645 10643 10641 10640 10638
10543 10547 10549 10550 10552 10554 10558 10562 10564 10568 10571 10573 10578 10589 10596 10596 10598 10605 10609 10612 10615 10620 10625 10630 10635 10639 10639 10638 10639 10641 10642 10642 10642 10643 10644 10644 10645 10646 10646 10648 10650 10652 10652 10653 10653 10653 10653 10653 10654 10654 10654 10655 10655 10655 10656 10655 10654 10653 10653 10654 10655 10655 10654 10653 10652 10652 10651 10651 10651 10650 10650 10649 10649 10648 10648 10647 10646 10645 10644 10643 10641 10639 10638 10636 10635 10633
10538 10541 10543 10546 10547 10548 10551 10554 10558 10562 10564 10569 10578 10586 10585 10584 10593 10601 10604 10608 10613 10618 10623 10627 10630 10633 10634 10634 10635 10635 10635 10636 10636 10636 10636 10638 10639 10640 10642 10645 10647 10648 10649 10649 10648 10648 10648 10648 10649 10649 10649 10650 10650 10650 10649 10648 10648 10647 10647 10648 10649 10649 10648 10647 10646 10645 10645 10645 10644 10644 10643 10642 10642 10641 10641 10640 10640 10639 10638 10637 10635 10633 10632 10630 10629 10628
10532 10535 10537 10540 10541 10541 10545 10548 10554 10559 10563 10568 10573 10574 10574 10579 10591 10598 10601 10606 10610 10614 10619 10622 10625 10628 10630 10631 10629 10628 10628 10629 10630 10631 10631 10632 10633 10635 10638 10641 10643 10643 10643 10643 10643 10643 10642 10642 10643 10643 10644 10644 10644 10644 10643 10642 10642 10642 10642 10642 10642 10642 10641 10641 10640 10639 10639 10638 10638 10637 10637 10636 10635 10635 10634 10634 10633 10632 10631 10630 10628 10627 10626 10624 10623 10622
10527 10530 10532 10535 10534 10535 10540 10547 10555 10561 10564 10565 10567 10569 10573 10580 10588 10593 10597 10601 10605 10609 10614 10617 10621 10624 10624 10624 10622 10620 10621 10623 10625 10627 10627 10628 10629 10631 10633 10635 10636 10637 10636 10636 10637 10637 10636 10637 10638 10639 10639 10639 10639 10638 10637 10637 10636 10636 10636 10636 10636 10636 10635 10635 10634 10634 10633 10632 10632 10631 10631 10630 10629 10628 10627 10627 10626 10625 10624 10623 10622 10620 10619 10618 10616 10616
10522 10525 10528 10529 10530 10534 10542 10551 10556 10558 10559 10560 10563 10568 10572 10577 10584 10589 10593 10598 10602 10607 10611 10613 10617 10619 10617 10616 10615 10615 10617 10619 10621 10623 10623 10624 10625 10625 10627 10627 10628 10630 10631 10632 10632 10632 10632 10632 10634 10635 10635 10634 10633 10632 10631 10631 10631 10631 10630 10630 10630 10630 10630 10629 10629 10628 10627 10626 10626 10625 10624 10624 10623 10621 10620 10620 10619 10618 10617 10616 10614 10613 10612 10611 10610 10609
10519 10521 10523 10525 10528 10535 10542 10546 10547 10549 10552 10554 10557 10562 10566 10571 10576 10581 10588 10595 10599 10603 10606 10610 10613 10613 10611 10611 10611 10612 10613 10615 10617 10618 10619 10620 10620 10621 10621 10621 10621 10623 10625 10627 10628 10627 10627 10628 10630 10630 10629 10628 10627 10626 10625 10625 10625 10625 10624 10625 10625 10625 10624 10623 10623 10622 10621 10620 10620 10619 10618 10617 10615 10614 10614 10613 10612 10611 10610 10608 10607 10606 10605 10604 10603 10602
10514 10516 10519 10523 10527 10531 10535 10538 10539 10543 10547 10549 10552 10557 10560 10565 10571 10576 10584 10590 10591 10595 10600 10603 10606 10607 10606 10607 10607 10608 10609 10611 10611 10612 10613 10614 10615 10616 10615 10615 10616 10617 10619 10621 10622 10621 10622 10624 10625 10624 10623 10622 10620 10619 10619 10619 10619 10618 10618 10619 10619 10618 10618 10617 10617 10616 10615 10615 10613 10612 10611 10610 10609 10608 10607 10606 10605 10604 10603 10601 10600 10599 10598 10597 10595 10594
10510 10513 10517 10521 10524 10527 10530 10533 10535 10538 10542 10546 10551 10555 10558 10564 10569 10572 10577 10581 10584 10589 10594 10597 10600 10602 10602 10602 10602 10603 10605 10605 10606 10606 10607 10608 10610 10610 10610 10611 10611 10611 10613 10615 10616 10616 10617 10619 10619 10617 10616 10615 10614 10614 10614 10614 10613 10613 10613 10613 10613 10612 10612 10611 10611 10610 10609 10608 10607 10605 10604 10603 10602 10601 10600 10599 10598 10597 10596 10594 10593 10592 10591 10590 10588 10586
10508 10511 10514 10518 10521 10523 10527 10530 10532 10536 10542 10546 10549 10553 10556 10560 10563 10566 10571 10575 10580 10587 10591 10593 10597 10598 10597 10597 10598 10599 10600 10601 10601 10601 10602 10603 10604 10604 10605 10606 10606 10607 10608 10609 10610 10610 10611 10612 10612 10610 10610 10609 10609 10609 10608 10608 10608 10607 10607 10607 10606 10606 10605 10605 10604 10603 10602 10601 10600 10599 10598 10597 10596 10594 10593 10592 10591 10590 10589 10587 10586 10584 10583 10582 10580 10579
10504 10507 10511 10515 10519 10522 10526 10529 10532 10535 10539 10543 10547 10550 10552 10554 10558 10562 10565 10570 10577 10583 10585 10588 10593 10593 10592 10592 10593 10594 10595 10596 10596 10597 10597 10597 10597 10598 10599 10600 10601 10602 10602 10603 10603 10603 10604 10605 10605 10604 10604 10603 10603 10603 10602 10602 10601 10601 10601 10600 10600 10599 10599 10598 10597 10596 10595 10594 10593 10592 10591 10590 10589 10588 10587 10585 10584 10583 10581 10580 10578 10577 10575 10574 10572 10571
10501 10504 10508 10512 10516 10519 10521 10524 10526 10528 10533 10538 10542 10545 10547 10549 10552 10555 10559 10566 10572 10575 10578 10583 10587 10587 10586 10586 10587 10588 10589 10590 10591 10592 10592 10591 10592 10593 10594 10596 10596 10596 10596 10596 10596 10596 10597 10598 10598 10598 10598 10597 10597 10597 10596 10596 10595 10595 10594 10593 10593 10593 10592 10591 10590 10589 10589 10588 10587 10586 10585 10584 10583 10581 10580 10578 10577 10576 10574 10572 10571 10569 10568 10566 10564 10562
10499 10502 10505 10509 10512 10514 10516 10518 10520 10524 10528 10533 10536 10539 10541 10543 10546 10550 10556 10563 10565 10568 10573 10577 10579 10579 10579 10579 10580 10581 10583 10584 10586 10586 10587 10587 10588 10589 10590 10591 10591 10590 10590 10589 10590 10591 10591 10592 10592 10592 10592 10591 10591 10590 10590 10590 10589 10589 10588 10587 10586 10586 10585 10584 10583 10583 10582 10581 10580 10579 10578 10577 10576 10575 10573 10572 10570 10569 10567 10565 10563 10562 10560 10558 10555 10553
10496 10499 10501 10505 10508 10510 10512 10514 10517 10520 10523 10528 10531 10533 10536 10538 10541 10546 10551 10555 10558 10562 10567 10569 10570 10572 10572 10572 10574 10576 10577 10579 10581 10582 10582 10583 10584 10585 10585 10585 10584 10584 10583 10583 10584 10585 10586 10585 10585 10586 10586 10585 10585 10585 10584 10584 10584 10583 10582 10581 10580 10579 10578 10577 10577 10576 10575 10574 10574 10573 10572 10571 10569 10568 10567 10565 10563 10562 10560 10558 10556 10554 10552 10549 10547 10545
10492 10494 10497 10500 10503 10505 10508 10510 10513 10515 10518 10522 10525 10528 10531 10534 10537 10541 10545 10549 10553 10557 10560 10561 10563 10565 10566 10567 10569 10570 10572 10574 10575 10576 10576 10577 10578 10579 10579 10579 10578 10577 10577 10578 10580 10580 10579 10579 10580 10580 10580 10580 10579 10579 10579 10579 10579 10578 10577 10575 10574 10573 10572 10571 10570 10569 10568 10568 10567 10566 10565 10564 10563 10561 10560 10558 10556 10555 10553 10551 10549 10546 10544 10541 10539 10537
10488 10490 10493 10496 10498 10501 10504 10506 10508 10511 10514 10516 10520 10523 10526 10530 10533 10537 10540 10544 10548 10551 10553 10555 10558 10560 10561 10562 10563 10565 10567 10568 10568 10569 10570 10571 10572 10573 10574 10573 10572 10571 10572 10573 10575 10575 10574 10574 10574 10574 10574 10574 10574 10574 10574 10574 10573 10572 10571 10569 10568 10567 10565 10564 10564 10563 10562 10561 10561 10560 10559 10557 10556 10554 10553 10551 10549 10547 10545 10543 10541 10538 10536 10533 10531 10529
10483 10486 10488 10490 10493 10497 10499 10501 10504 10506 10508 10511 10515 10519 10522 10525 10529 10532 10535 10539 10542 10544 10547 10550 10553 10554 10554 10555 10557 10559 10561 10561 10562 10562 10563 10565 10567 10568 10568 10567 10566 10566 10567 10568 10569 10569 10568 10569 10569 10569 10569 10569 10569 10569 10570 10569 10568 10566 10565 10563 10562 10561 10559 10558 10557 10557 10556 10555 10554 10553 10552 10550 10549 10547 10545 10544 10542 10540 10537 10535 10532 10530 10527 10525 10523 10520
10478 10481 10482 10485 10488 10491 10494 10497 10499 10501 10504 10508 10513 10516 10518 10521 10524 10527 10530 10532 10535 10538 10541 10545 10546 10546 10547 10550 10552 10553 10554 10554 10555 10556 10557 10559 10561 10561 10561 10561 10560 10560 10561 10562 10563 10563 10563 10564 10564 10563 10563 10563 10563 10564 10564 10563 10561 10560 10558 10557 10556 10555 10553 10552 10551 10550 10549 10548 10547 10546 10545 10543 10541 10540 10538 10536 10534 10532 10529 10526 10524 10521 10519 10516 10514 10512
10474 10475 10476 10479 10482 10485 10488 10491 10492 10496 10502 10507 10510 10511 10513 10516 10519 10521 10523 10526 10529 10532 10535 10537 10538 10539 10542 10545 10545 10546 10547 10547 10548 10550 10552 10553 10554 10554 10554 10554 10554 10554 10554 10556 10556 10557 10558 10558 10558 10557 10556 10556 10556 10557 10556 10556 10555 10554 10552 10551 10550 10548 10547 10546 10545 10544 10543 10542 10540 10539 10538 10536 10534 10532 10530 10528 10526 10523 10521 10518 10515 10513 10510 10508 10505 10503
10468 10469 10471 10474 10476 10479 10482 10484 10488 10495 10500 10502 10503 10505 10507 10510 10512 10515 10517 10519 10522 10525 10528 10530 10532 10533 10536 10537 10539 10540 10540 10541 10542 10544 10546 10547 10547 10547 10547 10547 10547 10548 10549 10550 10551 10551 10551 10551 10551 10550 10549 10549 10549 10549 10549 10549 10548 10547 10546 10545 10544 10542 10541 10540 10538 10537 10536 10535 10534 10532 10531 10529 10526 10524 10522 10520 10518 10515 10512 10509 10507 10504 10502 10499 10496 10494
10462 10464 10466 10468 10470 10474 10477 10481 10487 10492 10494 10494 10497 10500 10502 10504 10506 10508 10510 10513 10516 10519 10522 10524 10526 10528 10530 10531 10532 10533 10533 10534 10536 10538 10540 10541 10540 10540 10540 10540 10541 10542 10544 10545 10545 10545 10545 10545 10544 10543 10542 10542 10542 10542 10542 10541 10541 10541 10540 10539 10538 10536 10535 10533 10532 10531 10530 10529 10527 10525 10523 10521 10519 10517 10514 10512 10510 10507 10504 10501 10499 10496 10493 10490 10487 10484
10456 10458 10460 10463 10466 10470 10474 10479 10483 10485 10486 10489 10492 10494 10495 10497 10499 10501 10504 10507 10511 10514 10516 10518 10520 10522 10524 10524 10525 10526 10526 10527 10530 10533 10534 10533 10532 10533 10535 10536 10537 10538 10539 10539 10539 10539 10539 10538 10537 10536 10535 10535 10535 10535 10535 10534 10534 10533 10532 10532 10531 10529 10528 10527 10525 10524 10523 10522 10520 10518 10516 10514 10511 10509 10507 10505 10502 10499 10497 10494 10491 10488 10485 10482 10479 10476
10450 10452 10455 10457 10460 10465 10469 10473 10476 10480 10483 10485 10485 10486 10487 10489 10492 10495 10498 10503 10507 10509 10511 10513 10514 10516 10517 10517 10518 10519 10519 10522 10525 10526 10525 10525 10526 10528 10530 10531 10532 10532 10532 10532 10532 10532 10532 10532 10530 10529 10528 10528 10528 10527 10527 10527 10527 10526 10525 10524 10523 10522 10520 10519 10518 10517 10516 10515 10513 10511 10509 10507 10505 10502 10500 10497 10495 10492 10489 10486 10483 10480 10477 10474 10471 10468
10444 10446 10448 10451 10455 10460 10464 10468 10472 10476 10478 10478 10477 10478 10481 10484 10487 10490 10494 10499 10503 10504 10505 10506 10507 10509 10510 10511 10512 10513 10515 10517 10517 10516 10517 10519 10520 10522 10524 10526 10526 10525 10525 10525 10525 10526 10526 10525 10524 10522 10521 10521 10521 10520 10520 10520 10520 10519 10518 10516 10515 10514 10513 10512 10511 10510 10509 10508 10506 10504 10502 10500 10497 10495 10493 10490 10487 10484 10481 10478 10475 10472 10469 10466 10463 10459
10438 10440 10443 10447 10452 10456 10459 10462 10467 10470 10471 10471 10472 10474 10477 10479 10481 10484 10491 10497 10496 10495 10496 10498 10500 10502 10504 10505 10506 10507 10509 10509 10508 10509 10512 10514 10515 10516 10517 10518 10518 10518 10518 10518 10518 10519 10519 10518 10517 10515 10514 10514 10514 10514 10514 10513 10512 10511 10510 10509 10508 10506 10506 10505 10504 10504 10503 10501 10499 10497 10495 10493 10490 10488 10485 10482 10479 10476 10473 10470 10467 10464 10461 10458 10454 10451
10432 10435 10439 10442 10446 10450 10452 10456 10460 10463 10465 10466 10468 10470 10473 10474 10476 10481 10487 10488 10485 10484 10487 10491 10494 10496 10498 10499 10500 10501 10501 10502 10502 10505 10507 10508 10509 10510 10510 10511 10511 10511 10511 10510 10511 10512 10511 10511 10510 10508 10507 10507 10507 10507 10506 10505 10504 10504 10503 10501 10500 10499 10499 10498 10497 10497 10496 10494 10492 10490 10488 10485 10483 10480 10477 10474 10470 10467 10465 10462 10458 10455 10453 10449 10446 10442
10427 10430 10433 10437 10440 10443 10446 10450 10453 10457 10460 10461 10462 10464 10466 10467 10470 10474 10475 10475 10476 10478 10481 10485 10488 10490 10492 10493 10494 10495 10495 10496 10497 10499 10501 10501 10503 10504 10504 10504 10503 10503 10503 10503 10503 10504 10504 10503 10502 10501 10500 10500 10500 10499 10499 10498 10497 10496 10495 10494 10493 10492 10492 10491 10490 10490 10489 10487 10485 10483 10480 10477 10474 10471 10468 10465 10462 10459 10457 10454 10450 10447 10444 10441 10437 10433
10421 10424 10428 10431 10433 10436 10440 10443 10446 10449 10451 10452 10453 10455 10455 10457 10462 10465 10467 10470 10473 10475 10476 10479 10482 10484 10486 10487 10489 10489 10489 10489 10491 10494 10495 10496 10497 10498 10498 10497 10496 10496 10496 10495 10496 10496 10496 10496 10495 10494 10493 10493 10493 10492 10492 10491 10490 10489 10488 10488 10487 10486 10485 10484 10484 10483 10481 10480 10478 10475 10472 10469 10466 10463 10460 10457 10454 10452 10449 10446 10442 10439 10436 10432 10429 10425
10414 10418 10421 10424 10426 10429 10432 10435 10438 10440 10441 10443 10446 10447 10449 10453 10457 10460 10463 10467 10469 10471 10472 10474 10476 10478 10480 10481 10482 10482 10482 10483 10486 10488 10490 10490 10491 10491 10491 10490 10489 10489 10489 10488 10488 10488 10488 10488 10488 10487 10487 10487 10486 10485 10485 10484 10483 10482 10482 10482 10481 10479 10478 10477 10476 10475 10473 10472 10469 10466 10464 10461 10458 10455 10452 10449 10446 10444 10441 10438 10434 10431 10427 10424 10421 10417
10408 10411 10414 10416 10419 10422 10425 10427 10430 10432 10434 10438 10440 10442 10444 10448 10452 10454 10457 10460 10463 10465 10467 10468 10469 10472 10474 10475 10475 10475 10475 10477 10480 10482 10484 10485 10485 10484 10483 10483 10482 10482 10482 10481 10480 10480 10480 10481 10482 10482 10482 10481 10480 10479 10478 10477 10476 10476 10476 10475 10474 10472 10471 10469 10468 10466 10465 10463 10461 10458 10456 10454 10451 10449 10445 10442 10439 10436 10433 10431 10427 10423 10419 10416 10412 10408
10401 10404 10407 10410 10412 10415 10418 10421 10423 10426 10428 10431 10433 10436 10439 10443 10446 10448 10451 10454 10457 10459 10461 10462 10463 10465 10467 10468 10469 10469 10469 10471 10474 10476 10477 10478 10478 10478 10477 10476 10475 10475 10474 10474 10473 10473 10475 10476 10476 10476 10475 10474 10473 10472 10471 10470 10470 10469 10469 10468 10467 10465 10463 10461 10459 10458 10457 10456 10453 10451 10449 10447 10445 10442 10438 10435 10431 10428 10426 10424 10420 10416 10411 10407 10404 10400
10396 10399 10402 10405 10407 10410 10412 10414 10417 10420 10422 10425 10428 10431 10434 10438 10440 10443 10445 10448 10451 10453 10455 10456 10457 10459 10461 10462 10462 10463 10464 10466 10468 10469 10470 10470 10471 10471 10470 10469 10469 10468 10468 10467 10466 10467 10470 10471 10470 10470 10469 10467 10466 10465 10464 10464 10463 10462 10461 10460 10459 10457 10455 10453 10451 10450 10449 10448 10446 10444 10442 10440 10438 10435 10431 10428 10424 10421 10419 10417 10413 10409 10405 10400 10396 10392
10392 10395 10398 10400 10402 10405 10407 10409 10412 10415 10418 10421 10424 10427 10430 10433 10436 10438 10441 10443 10446 10448 10449 10451 10452 10453 10454 10455 10456 10457 10458 10459 10461 10462 10462 10463 10464 10464 10464 10463 10463 10462 10461 10459 10459 10461 10463 10463 10463 10463 10462 10461 10460 10458 10458 10457 10456 10455 10454 10453 10451 10450 10447 10445 10444 10443 10442 10440 10439 10437 10435 10433 10430 10427 10424 10421 10418 10414 10412 10409 10406 10402 10398 10393 10388 10384
10390 10392 10394 10396 10398 10401 10402 10405 10408 10412 10415 10418 10421 10423 10426 10429 10431 10433 10436 10438 10440 10441 10443 10445 10446 10447 10448 10448 10449 10450 10451 10453 10454 10455 10455 10456 10457 10457 10456 10456 10456 10456 10455 10453 10453 10454 10455 10455 10455 10456 10455 10454 10453 10452 10451 10450 10448 10447 10447 10446 10444 10442 10440 10438 10436 10436 10435 10433 10431 10429 10427 10425 10423 10420 10417 10414 10411 10407 10405 10402 10399 10395 10391 10385 10381 10376
10387 10389 10391 10393 10396 10398 10400 10404 10408 10411 10412 10414 10416 10418 10420 10423 10425 10427 10429 10431 10432 10434 10436 10437 10438 10440 10440 10441 10442 10443 10445 10446 10448 10449 10449 10450 10450 10450 10449 10449 10450 10450 10448 10447 10448 10449 10449 10448 10447 10447 10447 10447 10446 10446 10444 10443 10441 10440 10439 10439 10437 10435 10433 10431 10429 10428 10427 10425 10424 10422 10420 10418 10415 10412 10410 10407 10404 10400 10397 10394 10391 10387 10383 10379 10374 10369
10384 10386 10388 10391 10393 10395 10398 10401 10403 10404 10405 10407 10410 10412 10414 10416 10418 10420 10421 10423 10425 10427 10428 10430 10431 10432 10434 10435 10436 10438 10439 10441 10442 10443 10443 10443 10444 10444 10443 10444 10445 10443 10441 10440 10442 10444 10444 10442 10440 10440 10441 10440 10440 10439 10438 10436 10434 10433 10432 10432 10430 10428 10426 10424 10422 10420 10419 10418 10416 10414 10412 10410 10408 10405 10403 10400 10397 10393 10390 10386 10383 10380 10376 10372 10368 10364